When you browse on this site, cookies collect data to enhance your experience and personalize the content and advertising you see.
Visit our Privacy Policy to learn more. By continuing to use the site, you agree to this use of cookies and data.
  • In Italy
  • List of Countries
  • For 7 days
  • Water Temperature
  • Weather Map
  • Weather Widgets
  • user-avatar
    Login

    Hourly Weather Zhlobin

    Today, 18 August, Sunday

    Time Temperature Precipitation Wind Pressure Humidity
    00:00 +12°C° 0 mm 3 mps 747 mmHg 91%
    01:00 +12°C° 0 mm 3 mps 747 mmHg 89%
    02:00 +13°C° 0 mm 3 mps 747 mmHg 86%
    03:00 +12°C° 0 mm 3 mps 747 mmHg 89%
    04:00 +12°C° 0 mm 3 mps 747 mmHg 91%
    05:00 +11°C° 0 mm 3 mps 747 mmHg 93%
    06:00 +13°C° 0 mm 3 mps 747 mmHg 87%
    07:00 +14°C° 0 mm 3 mps 747 mmHg 81%
    08:00 +17°C° 0 mm 4 mps 747 mmHg 76%
    09:00 +18°C° 0 mm 4 mps 747 mmHg 71%
    10:00 +19°C° 0 mm 4 mps 747 mmHg 66%
    11:00 +21°C° 0 mm 4 mps 748 mmHg 61%
    12:00 +22°C° 0 mm 4 mps 748 mmHg 60%
    13:00 +22°C° 0 mm 4 mps 748 mmHg 58%
    14:00 +23°C° 0 mm 4 mps 748 mmHg 56%
    15:00 +23°C° 0 mm 4 mps 748 mmHg 57%
    16:00 +24°C° 0 mm 3 mps 748 mmHg 58%
    17:00 +24°C° 0 mm 2 mps 748 mmHg 59%
    18:00 +21°C° 0 mm 2 mps 749 mmHg 65%
    19:00 +19°C° 0 mm 1 mps 749 mmHg 71%
    20:00 +16°C° 0 mm 1 mps 749 mmHg 77%
    21:00 +16°C° 0 mm 1 mps 749 mmHg 77%
    22:00 +15°C° 0 mm 1 mps 749 mmHg 76%
    23:00 +15°C° 0 mm 1 mps 749 mmHg 76%

    Tomorrow, 19 August, Monday

    Time Temperature Precipitation Wind Pressure Humidity
    00:00 +15°C° 0 mm 1 mps 750 mmHg 77%
    01:00 +15°C° 0 mm 1 mps 750 mmHg 79%
    02:00 +15°C° 0 mm 1 mps 750 mmHg 80%
    03:00 +14°C° 0 mm 2 mps 750 mmHg 83%
    04:00 +14°C° 0 mm 2 mps 750 mmHg 85%
    05:00 +14°C° 0 mm 2 mps 750 mmHg 87%
    06:00 +16°C° 0 mm 2 mps 751 mmHg 81%
    07:00 +18°C° 0 mm 3 mps 751 mmHg 76%
    08:00 +20°C° 0 mm 3 mps 751 mmHg 70%
    09:00 +22°C° 0 mm 3 mps 751 mmHg 65%
    10:00 +25°C° 0 mm 3 mps 751 mmHg 59%
    11:00 +27°C° 0 mm 4 mps 751 mmHg 54%
    12:00 +27°C° 0 mm 4 mps 751 mmHg 53%
    13:00 +28°C° 0 mm 3 mps 751 mmHg 52%
    14:00 +29°C° 0 mm 3 mps 751 mmHg 51%
    15:00 +28°C° 0 mm 3 mps 751 mmHg 54%
    16:00 +28°C° 0 mm 3 mps 751 mmHg 58%
    17:00 +28°C° 0 mm 2 mps 751 mmHg 61%
    18:00 +26°C° 0 mm 2 mps 751 mmHg 66%
    19:00 +24°C° 0 mm 2 mps 752 mmHg 71%
    20:00 +23°C° 0 mm 2 mps 752 mmHg 76%
    21:00 +21°C° 0 mm 2 mps 752 mmHg 78%
    22:00 +21°C° 0 mm 3 mps 752 mmHg 79%
    23:00 +20°C° 0 mm 3 mps 752 mmHg 80%

    Day after tomorrow, 20 August, Tuesday

    Time Temperature Precipitation Wind Pressure Humidity
    00:00 +20°C° 0 mm 3 mps 752 mmHg 83%
    01:00 +19°C° 0 mm 2 mps 752 mmHg 85%
    02:00 +19°C° 0 mm 2 mps 752 mmHg 87%
    03:00 +19°C° 0.6 mm 2 mps 753 mmHg 89%
    04:00 +18°C° 0.6 mm 2 mps 753 mmHg 91%
    05:00 +18°C° 0.6 mm 2 mps 753 mmHg 94%
    06:00 +19°C° 0 mm 2 mps 753 mmHg 90%
    07:00 +21°C° 0 mm 3 mps 753 mmHg 86%
    08:00 +22°C° 0 mm 3 mps 753 mmHg 82%
    09:00 +25°C° 0 mm 3 mps 754 mmHg 75%
    10:00 +27°C° 0 mm 3 mps 754 mmHg 68%
    11:00 +28°C° 0 mm 3 mps 754 mmHg 61%
    12:00 +29°C° 0 mm 3 mps 754 mmHg 58%
    13:00 +30°C° 0 mm 3 mps 754 mmHg 55%
    14:00 +31°C° 0 mm 3 mps 754 mmHg 52%
    15:00 +31°C° 0.1 mm 2 mps 754 mmHg 54%
    16:00 +30°C° 0.1 mm 2 mps 754 mmHg 56%
    17:00 +30°C° 0.1 mm 1 mps 754 mmHg 58%
    18:00 +28°C° 0.1 mm 1 mps 754 mmHg 65%
    19:00 +26°C° 0.1 mm 1 mps 754 mmHg 71%
    20:00 +24°C° 0.1 mm 1 mps 754 mmHg 77%
    21:00 +23°C° 0 mm 1 mps 754 mmHg 79%
    22:00 +23°C° 0 mm 1 mps 754 mmHg 80%
    23:00 +22°C° 0 mm 1 mps 755 mmHg 82%

    21 August, Wednesday

    Time Temperature Precipitation Wind Pressure Humidity
    00:00 +21°C° 0 mm 1 mps 755 mmHg 83%
    01:00 +21°C° 0 mm 1 mps 755 mmHg 85%
    02:00 +21°C° 0 mm 1 mps 755 mmHg 86%
    03:00 +20°C° 0 mm 1 mps 755 mmHg 87%
    04:00 +20°C° 0 mm 1 mps 755 mmHg 88%
    05:00 +20°C° 0 mm 1 mps 755 mmHg 88%
    06:00 +21°C° 0 mm 1 mps 755 mmHg 83%
    07:00 +23°C° 0 mm 1 mps 755 mmHg 78%
    08:00 +25°C° 0 mm 1 mps 755 mmHg 73%
    09:00 +26°C° 0.1 mm 2 mps 755 mmHg 67%
    10:00 +28°C° 0.1 mm 2 mps 754 mmHg 60%
    11:00 +29°C° 0.1 mm 2 mps 754 mmHg 54%
    12:00 +30°C° 0 mm 3 mps 754 mmHg 52%
    13:00 +30°C° 0 mm 3 mps 754 mmHg 50%
    14:00 +31°C° 0 mm 3 mps 753 mmHg 47%
    15:00 +31°C° 0 mm 3 mps 753 mmHg 50%
    16:00 +30°C° 0 mm 2 mps 753 mmHg 53%
    17:00 +30°C° 0 mm 2 mps 752 mmHg 56%
    18:00 +28°C° 0 mm 2 mps 752 mmHg 59%
    19:00 +26°C° 0 mm 2 mps 752 mmHg 62%
    20:00 +24°C° 0 mm 2 mps 752 mmHg 65%
    21:00 +24°C° 0 mm 2 mps 752 mmHg 67%
    22:00 +23°C° 0 mm 2 mps 752 mmHg 68%
    23:00 +21°C° 0 mm 2 mps 752 mmHg 70%

    22 August, Thursday

    Time Temperature Precipitation Wind Pressure Humidity
    00:00 +21°C° 0 mm 2 mps 752 mmHg 70%
    01:00 +20°C° 0 mm 2 mps 752 mmHg 71%
    02:00 +20°C° 0 mm 2 mps 752 mmHg 72%
    03:00 +20°C° 0 mm 2 mps 752 mmHg 76%
    04:00 +19°C° 0 mm 2 mps 752 mmHg 80%
    05:00 +19°C° 0 mm 2 mps 752 mmHg 83%
    06:00 +19°C° 0 mm 3 mps 752 mmHg 84%
    07:00 +19°C° 0 mm 4 mps 752 mmHg 85%
    08:00 +20°C° 0 mm 5 mps 753 mmHg 86%
    09:00 +19°C° 0 mm 5 mps 753 mmHg 85%
    10:00 +19°C° 0 mm 5 mps 753 mmHg 84%
    11:00 +17°C° 0 mm 5 mps 753 mmHg 82%
    12:00 +19°C° 0 mm 5 mps 754 mmHg 81%
    13:00 +19°C° 0 mm 5 mps 754 mmHg 79%
    14:00 +19°C° 0 mm 5 mps 754 mmHg 77%
    15:00 +20°C° 0 mm 5 mps 754 mmHg 76%
    16:00 +20°C° 0 mm 5 mps 754 mmHg 74%
    17:00 +20°C° 0 mm 5 mps 754 mmHg 73%
    18:00 +19°C° 0 mm 5 mps 754 mmHg 74%
    19:00 +18°C° 0 mm 4 mps 755 mmHg 76%
    20:00 +17°C° 0 mm 4 mps 755 mmHg 77%
    21:00 +17°C° 0 mm 3 mps 755 mmHg 82%
    22:00 +16°C° 0 mm 3 mps 755 mmHg 86%
    23:00 +14°C° 0 mm 3 mps 755 mmHg 90%

    23 August, Friday

    Time Temperature Precipitation Wind Pressure Humidity
    00:00 +14°C° 0 mm 3 mps 755 mmHg 91%
    01:00 +13°C° 0 mm 3 mps 756 mmHg 92%
    02:00 +13°C° 0 mm 3 mps 756 mmHg 94%
    03:00 +13°C° 0 mm 3 mps 756 mmHg 94%
    04:00 +12°C° 0 mm 3 mps 756 mmHg 94%
    05:00 +12°C° 0 mm 3 mps 756 mmHg 94%
    06:00 +13°C° 0 mm 3 mps 756 mmHg 88%
    07:00 +16°C° 0 mm 3 mps 756 mmHg 82%
    08:00 +17°C° 0 mm 4 mps 756 mmHg 77%
    09:00 +19°C° 0 mm 4 mps 756 mmHg 70%
    10:00 +21°C° 0 mm 4 mps 756 mmHg 64%
    11:00 +22°C° 0 mm 4 mps 756 mmHg 58%
    12:00 +23°C° 0 mm 4 mps 756 mmHg 55%
    13:00 +23°C° 0 mm 4 mps 756 mmHg 53%
    14:00 +25°C° 0 mm 3 mps 756 mmHg 50%
    15:00 +24°C° 0 mm 3 mps 755 mmHg 52%
    16:00 +24°C° 0 mm 3 mps 755 mmHg 55%
    17:00 +22°C° 0 mm 3 mps 755 mmHg 57%
    18:00 +20°C° 0 mm 3 mps 755 mmHg 63%
    19:00 +18°C° 0 mm 2 mps 755 mmHg 68%
    20:00 +16°C° 0 mm 2 mps 755 mmHg 74%
    21:00 +16°C° 0 mm 2 mps 756 mmHg 75%
    22:00 +15°C° 0 mm 2 mps 756 mmHg 77%
    23:00 +14°C° 0 mm 2 mps 756 mmHg 78%
    Show more